Total_Precipitation_Accumulation
0.06 0.11 0.23 0.21 0.18 0.17 0.13 0.10 0.09 0.11 0.11 0.09 0.09 0.09 0.10 0.11 0.11 0.09 0.08 0.06 0.04 0.03 0.03 0.02 0.01 0.02 0.04 0.07 0.11 0.14 0.28 0.39 0.51 0.61 0.66 0.76 0.82 0.84 0.83 0.82 0.82 0.68 0.51 0.47
0.08 0.11 0.10 0.08 0.08 0.09 0.09 0.09 0.09 0.09 0.09 0.07 0.06 0.05 0.05 0.06 0.07 0.07 0.07 0.06 0.04 0.04 0.03 0.02 0.02 0.04 0.04 0.05 0.09 0.14 0.25 0.42 0.56 0.69 0.76 0.78 0.89 0.92 0.88 0.92 0.90 0.90 0.75 0.65
0.06 0.07 0.05 0.05 0.06 0.07 0.08 0.08 0.08 0.07 0.06 0.05 0.03 0.02 0.02 0.02 0.03 0.03 0.04 0.04 0.04 0.03 0.03 0.02 0.01 0.02 0.02 0.03 0.07 0.13 0.23 0.39 0.56 0.70 0.71 0.65 0.63 0.70 0.73 0.71 0.76 0.83 0.90 0.88
0.01 0.01 0.02 0.02 0.04 0.06 0.09 0.08 0.07 0.06 0.06 0.05 0.04 0.04 0.01 0.01 0.01 0.01 0.02 0.02 0.03 0.03 0.02 0.02 0.01 0.01 0.02 0.03 0.06 0.11 0.23 0.32 0.40 0.47 0.48 0.46 0.42 0.52 0.63 0.65 0.66 0.68 0.79 0.89
0.00 0.00 0.00 0.01 0.02 0.03 0.04 0.04 0.05 0.06 0.07 0.07 0.05 0.07 0.02 0.00 0.01 0.01 0.01 0.01 0.02 0.02 0.02 0.03 0.04 0.04 0.06 0.06 0.09 0.14 0.23 0.29 0.32 0.38 0.41 0.38 0.30 0.34 0.46 0.48 0.49 0.56 0.69 0.74
0.00 0.00 0.00 0.00 0.00 0.01 0.01 0.02 0.03 0.04 0.04 0.04 0.03 0.05 0.04 0.01 0.01 0.01 0.01 0.01 0.02 0.03 0.05 0.07 0.10 0.10 0.11 0.12 0.14 0.19 0.29 0.39 0.40 0.34 0.29 0.22 0.19 0.24 0.29 0.37 0.47 0.60 0.71 0.68
0.00 0.00 0.00 0.00 0.00 0.00 0.01 0.04 0.08 0.08 0.08 0.06 0.03 0.06 0.05 0.03 0.02 0.02 0.02 0.02 0.05 0.08 0.13 0.18 0.21 0.21 0.19 0.21 0.23 0.27 0.30 0.30 0.25 0.18 0.14 0.13 0.14 0.18 0.17 0.22 0.40 0.53 0.66 0.67
0.00 0.00 0.00 0.00 0.00 0.01 0.01 0.04 0.10 0.11 0.11 0.09 0.07 0.09 0.09 0.08 0.05 0.05 0.05 0.07 0.10 0.16 0.25 0.34 0.39 0.39 0.32 0.29 0.28 0.24 0.20 0.16 0.13 0.10 0.08 0.07 0.08 0.14 0.13 0.13 0.27 0.42 0.46 0.47
0.00 0.00 0.00 0.00 0.00 0.01 0.01 0.02 0.05 0.09 0.09 0.08 0.08 0.11 0.14 0.12 0.09 0.10 0.12 0.13 0.18 0.27 0.36 0.48 0.55 0.56 0.45 0.33 0.25 0.21 0.17 0.13 0.10 0.09 0.08 0.06 0.06 0.08 0.10 0.10 0.11 0.17 0.26 0.27
0.02 0.02 0.01 0.00 0.00 0.01 0.02 0.04 0.07 0.15 0.22 0.19 0.16 0.23 0.23 0.20 0.17 0.18 0.22 0.26 0.31 0.40 0.47 0.57 0.61 0.56 0.48 0.40 0.31 0.21 0.14 0.14 0.13 0.19 0.15 0.08 0.05 0.04 0.05 0.08 0.12 0.13 0.18 0.23
0.08 0.08 0.03 0.01 0.02 0.05 0.09 0.12 0.17 0.25 0.28 0.34 0.37 0.46 0.40 0.32 0.31 0.29 0.29 0.37 0.44 0.49 0.54 0.57 0.58 0.55 0.41 0.29 0.25 0.19 0.13 0.13 0.16 0.25 0.26 0.15 0.07 0.07 0.11 0.11 0.12 0.18 0.26 0.30
0.16 0.22 0.13 0.04 0.08 0.13 0.22 0.33 0.41 0.53 0.53 0.46 0.53 0.62 0.48 0.35 0.33 0.31 0.27 0.23 0.26 0.35 0.38 0.42 0.43 0.36 0.27 0.20 0.16 0.16 0.16 0.15 0.16 0.21 0.20 0.12 0.08 0.09 0.14 0.17 0.11 0.12 0.15 0.17
0.25 0.39 0.30 0.14 0.22 0.31 0.37 0.46 0.57 0.67 0.72 0.64 0.60 0.63 0.45 0.27 0.26 0.27 0.26 0.23 0.21 0.23 0.23 0.22 0.24 0.24 0.17 0.15 0.15 0.16 0.21 0.24 0.24 0.22 0.19 0.13 0.09 0.11 0.13 0.13 0.11 0.08 0.08 0.10
0.23 0.38 0.43 0.33 0.35 0.40 0.40 0.37 0.41 0.60 0.76 0.70 0.67 0.56 0.36 0.28 0.23 0.25 0.28 0.29 0.26 0.22 0.21 0.18 0.14 0.14 0.14 0.14 0.15 0.18 0.28 0.40 0.41 0.39 0.33 0.26 0.20 0.18 0.16 0.13 0.10 0.08 0.07 0.07
0.16 0.17 0.20 0.18 0.18 0.23 0.29 0.32 0.40 0.51 0.64 0.77 0.64 0.42 0.28 0.25 0.23 0.25 0.33 0.27 0.20 0.18 0.16 0.14 0.13 0.14 0.15 0.15 0.17 0.20 0.31 0.47 0.54 0.56 0.51 0.43 0.40 0.31 0.23 0.19 0.14 0.12 0.09 0.08
0.23 0.18 0.08 0.06 0.10 0.15 0.26 0.39 0.51 0.56 0.60 0.57 0.46 0.39 0.24 0.22 0.20 0.19 0.22 0.20 0.20 0.20 0.17 0.14 0.16 0.16 0.18 0.23 0.27 0.25 0.36 0.50 0.59 0.63 0.63 0.60 0.52 0.39 0.32 0.25 0.19 0.15 0.13 0.13
0.10 0.12 0.09 0.07 0.09 0.17 0.39 0.51 0.56 0.54 0.48 0.38 0.33 0.28 0.19 0.19 0.12 0.09 0.12 0.16 0.21 0.23 0.20 0.18 0.18 0.19 0.22 0.29 0.31 0.31 0.39 0.50 0.54 0.58 0.60 0.60 0.53 0.39 0.32 0.25 0.19 0.18 0.16 0.17
0.10 0.13 0.17 0.12 0.13 0.34 0.61 0.51 0.44 0.46 0.34 0.20 0.16 0.16 0.15 0.11 0.07 0.05 0.05 0.07 0.09 0.13 0.15 0.20 0.18 0.17 0.19 0.24 0.29 0.37 0.40 0.40 0.41 0.45 0.48 0.46 0.45 0.39 0.30 0.23 0.21 0.21 0.20 0.21
0.17 0.22 0.25 0.22 0.23 0.42 0.57 0.38 0.34 0.38 0.32 0.14 0.09 0.09 0.08 0.06 0.05 0.02 0.02 0.04 0.06 0.05 0.07 0.09 0.09 0.09 0.10 0.10 0.11 0.14 0.17 0.19 0.23 0.30 0.36 0.39 0.39 0.35 0.29 0.24 0.30 0.35 0.31 0.28
0.30 0.32 0.32 0.31 0.37 0.50 0.39 0.15 0.15 0.27 0.38 0.13 0.05 0.04 0.03 0.03 0.03 0.01 0.02 0.04 0.03 0.02 0.02 0.03 0.03 0.03 0.02 0.02 0.02 0.03 0.05 0.09 0.13 0.19 0.24 0.27 0.30 0.33 0.37 0.44 0.51 0.51 0.46 0.38
0.19 0.25 0.31 0.39 0.56 0.57 0.33 0.13 0.15 0.27 0.39 0.18 0.05 0.02 0.01 0.01 0.00 0.00 0.02 0.03 0.02 0.01 0.00 0.00 0.01 0.00 0.00 0.00 0.00 0.00 0.01 0.02 0.02 0.04 0.09 0.18 0.28 0.34 0.44 0.55 0.57 0.55 0.48 0.39
0.18 0.28 0.38 0.50 0.66 0.74 0.38 0.19 0.21 0.19 0.13 0.10 0.04 0.01 0.01 0.00 0.00 0.00 0.01 0.01 0.01 0.01 0.00 0.00 0.00 0.00 0.00 0.00 0.00 0.00 0.00 0.00 0.01 0.03 0.07 0.12 0.20 0.29 0.42 0.51 0.49 0.48 0.45 0.42
0.18 0.33 0.45 0.50 0.56 0.47 0.28 0.16 0.11 0.08 0.08 0.03 0.01 0.01 0.00 0.00 0.00 0.00 0.01 0.01 0.01 0.01 0.00 0.00 0.00 0.00 0.00 0.00 0.00 0.00 0.00 0.00 0.00 0.01 0.02 0.06 0.11 0.22 0.36 0.39 0.38 0.42 0.44 0.42
0.08 0.11 0.18 0.20 0.15 0.14 0.11 0.08 0.04 0.03 0.04 0.01 0.00 0.00 0.00 0.00 0.00 0.00 0.00 0.01 0.00 0.00 0.00 0.00 0.00 0.00 0.00 0.00 0.00 0.00 0.00 0.00 0.00 0.00 0.00 0.01 0.02 0.05 0.10 0.15 0.19 0.26 0.31 0.32
0.09 0.10 0.17 0.20 0.10 0.05 0.04 0.04 0.02 0.02 0.02 0.01 0.00 0.00 0.00 0.00 0.00 0.00 0.00 0.00 0.00 0.00 0.00 0.00 0.00 0.00 0.00 0.00 0.00 0.00 0.00 0.00 0.00 0.00 0.00 0.01 0.02 0.02 0.03 0.05 0.09 0.12 0.15 0.18
0.05 0.12 0.16 0.20 0.12 0.06 0.04 0.03 0.02 0.02 0.01 0.01 0.00 0.00 0.00 0.00 0.00 0.00 0.00 0.00 0.00 0.00 0.00 0.00 0.00 0.00 0.00 0.00 0.00 0.00 0.00 0.00 0.00 0.00 0.00 0.00 0.00 0.01 0.01 0.01 0.02 0.04 0.06 0.09